Precipitable_Water
1.63 1.59 1.54 1.56 1.63 1.64 1.69 1.66 1.63 1.50 1.40 1.27 1.28 1.28 1.21 1.22 1.18 1.10 1.06 0.95 0.90 0.87 0.86 0.85 0.83 0.84 0.92 0.92 0.91 0.87 0.86 0.84 0.89 0.89 0.83 0.87 0.90 0.81 0.75 0.66 0.64 0.64 0.70 0.73 0.72 0.72 0.72 0.72 0.71 0.69 0.66 0.65 0.64 0.64 0.58 0.60 0.52 0.50 0.55 0.55 0.56 0.61 0.65 0.69 0.74 0.78 0.81 0.84 0.85 0.86 0.84 0.80 0.77 0.77 0.78 0.79 0.78 0.79 0.80 0.80 0.79 0.77 0.73 0.70 0.68
1.62 1.62 1.54 1.54 1.61 1.64 1.64 1.67 1.70 1.59 1.49 1.34 1.33 1.37 1.30 1.26 1.23 1.20 1.13 1.00 0.90 0.86 0.85 0.84 0.84 0.81 0.80 0.88 0.91 0.90 0.87 0.86 0.84 0.89 0.83 0.86 0.89 0.86 0.79 0.74 0.71 0.62 0.65 0.71 0.70 0.71 0.71 0.74 0.72 0.68 0.66 0.64 0.66 0.62 0.59 0.59 0.53 0.48 0.53 0.54 0.56 0.60 0.64 0.69 0.73 0.78 0.82 0.85 0.85 0.86 0.81 0.77 0.75 0.75 0.76 0.77 0.77 0.79 0.79 0.77 0.76 0.72 0.69 0.67 0.66
1.65 1.62 1.58 1.52 1.57 1.59 1.59 1.63 1.68 1.62 1.64 1.46 1.39 1.35 1.31 1.29 1.24 1.19 1.16 1.04 0.93 0.89 0.84 0.82 0.81 0.82 0.81 0.78 0.85 0.86 0.87 0.86 0.86 0.84 0.86 0.85 0.88 0.89 0.82 0.78 0.72 0.67 0.60 0.67 0.68 0.69 0.68 0.73 0.75 0.69 0.67 0.64 0.57 0.62 0.56 0.57 0.55 0.50 0.51 0.54 0.55 0.60 0.65 0.69 0.74 0.80 0.84 0.85 0.87 0.84 0.79 0.76 0.74 0.73 0.73 0.75 0.76 0.77 0.76 0.74 0.72 0.69 0.67 0.65 0.64
1.60 1.61 1.59 1.57 1.56 1.56 1.54 1.53 1.54 1.56 1.57 1.49 1.42 1.40 1.30 1.25 1.22 1.19 1.12 1.04 0.96 0.93 0.90 0.81 0.79 0.78 0.81 0.79 0.82 0.86 0.83 0.87 0.84 0.86 0.82 0.86 0.83 0.89 0.85 0.81 0.76 0.69 0.62 0.62 0.69 0.70 0.62 0.72 0.75 0.73 0.67 0.66 0.60 0.62 0.55 0.60 0.54 0.42 0.51 0.53 0.55 0.62 0.65 0.70 0.76 0.82 0.85 0.87 0.88 0.82 0.78 0.76 0.74 0.72 0.72 0.74 0.76 0.75 0.73 0.71 0.70 0.67 0.65 0.64 0.63
1.67 1.62 1.56 1.55 1.55 1.55 1.52 1.57 1.52 1.59 1.63 1.48 1.48 1.45 1.37 1.28 1.20 1.19 1.12 1.05 0.97 0.92 0.91 0.86 0.77 0.76 0.78 0.82 0.78 0.79 0.86 0.86 0.85 0.86 0.86 0.83 0.83 0.84 0.91 0.84 0.81 0.73 0.61 0.59 0.61 0.66 0.63 0.71 0.75 0.75 0.71 0.66 0.64 0.61 0.54 0.59 0.53 0.41 0.49 0.50 0.56 0.64 0.66 0.71 0.77 0.83 0.86 0.87 0.84 0.77 0.77 0.77 0.76 0.76 0.74 0.75 0.76 0.73 0.71 0.69 0.67 0.65 0.64 0.63 0.63
1.57 1.60 1.60 1.56 1.54 1.54 1.54 1.63 1.64 1.56 1.59 1.54 1.45 1.49 1.42 1.33 1.25 1.16 1.09 1.03 0.94 0.90 0.87 0.83 0.77 0.75 0.72 0.77 0.84 0.79 0.84 0.82 0.85 0.85 0.87 0.83 0.83 0.81 0.82 0.86 0.87 0.79 0.74 0.70 0.68 0.63 0.62 0.66 0.73 0.73 0.74 0.69 0.65 0.62 0.56 0.55 0.48 0.42 0.48 0.50 0.59 0.65 0.69 0.73 0.78 0.85 0.87 0.83 0.80 0.77 0.76 0.76 0.78 0.77 0.76 0.77 0.75 0.72 0.69 0.67 0.65 0.64 0.64 0.64 0.63
1.54 1.54 1.58 1.57 1.53 1.51 1.51 1.59 1.70 1.64 1.63 1.59 1.54 1.48 1.39 1.33 1.32 1.21 1.12 1.04 0.96 0.92 0.90 0.88 0.81 0.73 0.73 0.70 0.76 0.84 0.84 0.83 0.85 0.85 0.85 0.84 0.82 0.81 0.81 0.79 0.84 0.90 0.80 0.74 0.68 0.61 0.56 0.62 0.70 0.72 0.73 0.73 0.69 0.66 0.61 0.57 0.53 0.39 0.44 0.50 0.60 0.66 0.71 0.75 0.82 0.87 0.86 0.82 0.79 0.76 0.74 0.73 0.77 0.78 0.78 0.77 0.74 0.71 0.69 0.66 0.65 0.64 0.64 0.64 0.61
1.48 1.56 1.59 1.56 1.48 1.45 1.50 1.59 1.62 1.63 1.65 1.64 1.61 1.52 1.45 1.34 1.32 1.28 1.17 1.08 1.01 0.93 0.95 0.89 0.86 0.77 0.74 0.73 0.69 0.78 0.83 0.79 0.81 0.83 0.85 0.86 0.83 0.83 0.83 0.80 0.80 0.82 0.83 0.82 0.79 0.77 0.67 0.61 0.62 0.71 0.74 0.71 0.71 0.69 0.66 0.61 0.59 0.52 0.37 0.48 0.60 0.68 0.72 0.77 0.84 0.85 0.84 0.82 0.79 0.77 0.75 0.75 0.78 0.78 0.78 0.76 0.73 0.71 0.68 0.67 0.66 0.66 0.66 0.64 0.59
1.35 1.50 1.55 1.54 1.51 1.49 1.50 1.57 1.58 1.57 1.59 1.59 1.62 1.59 1.50 1.41 1.36 1.32 1.19 1.09 1.04 0.99 0.98 0.95 0.87 0.83 0.78 0.73 0.73 0.70 0.76 0.80 0.79 0.84 0.86 0.84 0.84 0.82 0.82 0.82 0.79 0.78 0.81 0.82 0.84 0.81 0.73 0.67 0.64 0.63 0.68 0.73 0.70 0.72 0.69 0.67 0.62 0.57 0.39 0.48 0.62 0.69 0.75 0.81 0.85 0.84 0.84 0.83 0.80 0.78 0.76 0.77 0.79 0.79 0.76 0.74 0.73 0.71 0.68 0.67 0.67 0.67 0.66 0.63 0.58
1.13 1.36 1.49 1.53 1.52 1.51 1.56 1.62 1.56 1.52 1.50 1.55 1.60 1.61 1.55 1.49 1.45 1.46 1.34 1.18 1.13 1.09 1.03 1.00 0.94 0.85 0.81 0.75 0.74 0.74 0.72 0.77 0.82 0.83 0.83 0.82 0.82 0.82 0.83 0.82 0.80 0.79 0.78 0.79 0.79 0.82 0.78 0.73 0.70 0.66 0.65 0.65 0.68 0.70 0.69 0.67 0.66 0.62 0.42 0.50 0.63 0.71 0.75 0.84 0.87 0.84 0.85 0.84 0.79 0.76 0.73 0.77 0.79 0.79 0.76 0.74 0.74 0.72 0.70 0.69 0.68 0.67 0.65 0.61 0.57
0.83 1.07 1.21 1.39 1.47 1.48 1.51 1.56 1.51 1.56 1.48 1.52 1.55 1.53 1.53 1.51 1.50 1.53 1.55 1.41 1.25 1.20 1.19 1.11 0.98 0.90 0.83 0.78 0.76 0.80 0.77 0.73 0.77 0.84 0.85 0.83 0.82 0.82 0.84 0.83 0.82 0.81 0.80 0.76 0.76 0.80 0.82 0.77 0.74 0.72 0.69 0.65 0.65 0.66 0.66 0.63 0.63 0.61 0.39 0.55 0.65 0.70 0.76 0.88 0.89 0.86 0.84 0.82 0.77 0.73 0.74 0.77 0.80 0.78 0.75 0.75 0.75 0.74 0.72 0.70 0.68 0.66 0.64 0.60 0.56
0.70 0.76 0.85 1.03 1.25 1.38 1.44 1.54 1.57 1.56 1.49 1.44 1.41 1.46 1.47 1.48 1.49 1.53 1.48 1.45 1.47 1.36 1.36 1.27 1.14 0.96 0.87 0.81 0.80 0.84 0.82 0.79 0.69 0.71 0.81 0.86 0.84 0.83 0.81 0.83 0.82 0.83 0.81 0.82 0.81 0.75 0.76 0.78 0.76 0.73 0.68 0.66 0.63 0.62 0.61 0.59 0.59 0.55 0.41 0.60 0.62 0.72 0.81 0.90 0.89 0.86 0.83 0.79 0.75 0.72 0.75 0.78 0.80 0.78 0.75 0.74 0.74 0.74 0.73 0.71 0.68 0.66 0.63 0.58 0.53
0.65 0.68 0.70 0.76 0.84 1.03 1.26 1.39 1.44 1.47 1.47 1.46 1.48 1.45 1.49 1.48 1.46 1.48 1.46 1.42 1.48 1.48 1.42 1.37 1.20 1.06 0.97 0.85 0.86 0.89 0.88 0.83 0.77 0.71 0.73 0.80 0.84 0.82 0.81 0.82 0.82 0.83 0.84 0.83 0.82 0.76 0.71 0.77 0.78 0.74 0.72 0.71 0.66 0.65 0.64 0.62 0.59 0.54 0.41 0.59 0.64 0.74 0.81 0.91 0.89 0.85 0.82 0.77 0.73 0.72 0.74 0.77 0.79 0.77 0.75 0.74 0.74 0.74 0.73 0.71 0.68 0.65 0.62 0.57 0.52
0.62 0.65 0.64 0.68 0.72 0.78 0.90 1.06 1.23 1.33 1.43 1.44 1.46 1.49 1.51 1.50 1.47 1.41 1.47 1.40 1.39 1.50 1.49 1.41 1.24 1.11 0.99 0.93 0.86 0.89 0.89 0.87 0.83 0.79 0.75 0.73 0.78 0.79 0.79 0.79 0.78 0.82 0.85 0.83 0.82 0.74 0.70 0.74 0.76 0.75 0.73 0.74 0.72 0.73 0.71 0.69 0.65 0.59 0.39 0.49 0.64 0.72 0.79 0.92 0.89 0.84 0.80 0.76 0.72 0.72 0.74 0.78 0.79 0.77 0.77 0.75 0.74 0.74 0.73 0.71 0.69 0.66 0.62 0.57 0.53
0.64 0.65 0.64 0.65 0.65 0.67 0.72 0.82 0.92 1.01 1.07 1.20 1.33 1.41 1.47 1.47 1.46 1.38 1.36 1.42 1.41 1.48 1.44 1.42 1.27 1.25 1.15 1.03 0.92 0.81 0.83 0.82 0.84 0.81 0.77 0.76 0.75 0.73 0.72 0.73 0.75 0.78 0.79 0.79 0.78 0.78 0.71 0.72 0.75 0.72 0.71 0.73 0.78 0.74 0.70 0.69 0.65 0.59 0.51 0.45 0.60 0.68 0.78 0.89 0.87 0.83 0.79 0.74 0.72 0.72 0.74 0.78 0.78 0.76 0.76 0.76 0.76 0.75 0.74 0.72 0.70 0.67 0.63 0.57 0.54
0.61 0.63 0.65 0.66 0.69 0.68 0.70 0.74 0.78 0.83 0.89 0.98 1.18 1.30 1.39 1.44 1.45 1.43 1.41 1.30 1.33 1.37 1.50 1.46 1.39 1.31 1.08 1.02 0.99 0.93 0.74 0.71 0.73 0.79 0.83 0.81 0.78 0.74 0.73 0.70 0.71 0.73 0.74 0.76 0.77 0.80 0.76 0.70 0.71 0.74 0.71 0.69 0.74 0.78 0.77 0.73 0.68 0.59 0.54 0.44 0.58 0.66 0.76 0.87 0.87 0.82 0.79 0.74 0.71 0.72 0.74 0.76 0.76 0.76 0.76 0.77 0.78 0.77 0.75 0.73 0.71 0.68 0.63 0.58 0.55
0.59 0.62 0.61 0.63 0.66 0.68 0.68 0.71 0.73 0.76 0.80 0.83 0.88 1.04 1.20 1.33 1.44 1.44 1.41 1.33 1.28 1.35 1.43 1.46 1.42 1.44 1.25 1.11 1.00 0.91 0.83 0.81 0.87 0.83 0.87 0.79 0.77 0.76 0.76 0.73 0.71 0.71 0.72 0.71 0.77 0.78 0.78 0.71 0.70 0.74 0.75 0.70 0.71 0.76 0.79 0.78 0.73 0.67 0.50 0.40 0.57 0.63 0.74 0.82 0.83 0.82 0.79 0.76 0.72 0.72 0.73 0.75 0.76 0.78 0.77 0.77 0.80 0.78 0.77 0.76 0.73 0.70 0.64 0.59 0.57
0.57 0.59 0.60 0.61 0.63 0.66 0.66 0.66 0.68 0.71 0.73 0.76 0.81 0.87 0.95 1.05 1.23 1.39 1.44 1.47 1.38 1.37 1.39 1.52 1.48 1.45 1.41 1.31 1.23 1.08 0.97 0.97 0.86 0.75 0.94 0.90 0.85 0.81 0.78 0.77 0.74 0.74 0.73 0.72 0.71 0.72 0.77 0.75 0.76 0.74 0.73 0.74 0.70 0.72 0.73 0.75 0.72 0.63 0.48 0.34 0.54 0.61 0.72 0.81 0.82 0.82 0.80 0.78 0.74 0.73 0.73 0.76 0.78 0.79 0.79 0.80 0.80 0.80 0.79 0.78 0.76 0.72 0.68 0.64 0.60
0.54 0.56 0.59 0.60 0.61 0.62 0.62 0.65 0.66 0.66 0.68 0.73 0.77 0.80 0.84 0.90 1.02 1.11 1.27 1.43 1.47 1.35 1.32 1.33 1.48 1.47 1.44 1.35 1.28 1.27 1.24 1.08 0.90 0.86 0.75 0.87 0.90 0.86 0.80 0.79 0.79 0.75 0.74 0.76 0.74 0.69 0.75 0.79 0.76 0.77 0.72 0.72 0.73 0.69 0.69 0.68 0.64 0.54 0.38 0.29 0.51 0.63 0.72 0.79 0.78 0.79 0.81 0.80 0.76 0.75 0.75 0.77 0.79 0.81 0.83 0.83 0.81 0.81 0.82 0.81 0.79 0.75 0.71 0.68 0.65
0.56 0.54 0.55 0.57 0.59 0.60 0.61 0.62 0.63 0.64 0.64 0.63 0.64 0.74 0.82 0.84 0.89 1.01 1.06 1.11 1.23 1.28 1.29 1.33 1.27 1.27 1.41 1.36 1.30 1.28 1.29 1.23 1.13 0.98 0.89 0.81 0.86 0.96 0.93 0.86 0.85 0.82 0.79 0.78 0.74 0.70 0.75 0.75 0.69 0.67 0.69 0.72 0.76 0.73 0.70 0.70 0.59 0.51 0.38 0.35 0.54 0.64 0.70 0.79 0.75 0.77 0.81 0.80 0.77 0.76 0.75 0.77 0.80 0.83 0.84 0.84 0.83 0.84 0.86 0.85 0.83 0.78 0.73 0.70 0.68
0.57 0.56 0.57 0.56 0.56 0.56 0.58 0.58 0.59 0.60 0.64 0.63 0.63 0.64 0.67 0.76 0.86 0.89 0.95 1.10 1.17 1.15 1.11 1.13 1.19 1.23 1.31 1.31 1.28 1.27 1.27 1.23 1.21 1.16 0.96 0.87 0.86 0.88 0.86 0.93 0.89 0.86 0.82 0.81 0.78 0.77 0.78 0.75 0.68 0.64 0.69 0.73 0.74 0.76 0.71 0.64 0.56 0.50 0.44 0.42 0.58 0.65 0.71 0.78 0.75 0.79 0.81 0.80 0.78 0.76 0.75 0.78 0.83 0.85 0.85 0.85 0.86 0.89 0.90 0.87 0.84 0.79 0.73 0.68 0.65
0.53 0.56 0.58 0.56 0.57 0.58 0.57 0.57 0.57 0.59 0.60 0.60 0.62 0.63 0.64 0.66 0.73 0.83 0.88 0.91 1.06 1.17 1.18 1.22 1.30 1.38 1.39 1.32 1.24 1.23 1.22 1.19 1.19 1.17 1.11 1.03 0.86 0.90 0.97 0.94 0.85 0.86 0.88 0.84 0.79 0.78 0.80 0.81 0.76 0.66 0.64 0.71 0.71 0.70 0.62 0.55 0.54 0.52 0.57 0.49 0.59 0.68 0.72 0.76 0.75 0.76 0.82 0.82 0.80 0.77 0.76 0.80 0.85 0.86 0.86 0.86 0.89 0.92 0.91 0.87 0.82 0.77 0.70 0.66 0.63
0.46 0.51 0.55 0.53 0.55 0.55 0.57 0.59 0.60 0.59 0.57 0.58 0.59 0.61 0.61 0.61 0.64 0.75 0.82 0.84 0.90 1.02 1.08 1.15 1.24 1.32 1.37 1.37 1.29 1.23 1.18 1.14 1.17 1.19 1.15 1.05 0.97 0.89 0.91 0.98 0.98 0.92 0.93 0.92 0.88 0.84 0.83 0.84 0.83 0.77 0.65 0.70 0.69 0.67 0.59 0.55 0.56 0.59 0.66 0.55 0.62 0.67 0.73 0.75 0.74 0.75 0.81 0.83 0.82 0.78 0.77 0.80 0.85 0.88 0.89 0.90 0.92 0.92 0.92 0.88 0.83 0.79 0.73 0.69 0.64
0.49 0.47 0.50 0.53 0.51 0.51 0.53 0.56 0.58 0.60 0.59 0.58 0.59 0.61 0.63 0.63 0.62 0.65 0.73 0.82 0.86 0.88 0.91 0.95 1.06 1.18 1.25 1.31 1.32 1.31 1.30 1.28 1.27 1.27 1.26 1.20 1.11 1.01 0.96 0.94 0.95 0.98 0.95 0.94 0.94 0.90 0.86 0.84 0.85 0.83 0.73 0.73 0.74 0.70 0.62 0.63 0.70 0.76 0.72 0.63 0.62 0.65 0.70 0.73 0.73 0.75 0.82 0.84 0.81 0.80 0.80 0.83 0.87 0.90 0.92 0.91 0.89 0.91 0.92 0.90 0.84 0.77 0.72 0.68 0.63
0.50 0.47 0.44 0.44 0.45 0.47 0.49 0.49 0.53 0.57 0.60 0.61 0.61 0.61 0.63 0.64 0.64 0.64 0.66 0.73 0.82 0.88 0.86 0.85 0.90 0.96 1.04 1.14 1.20 1.25 1.27 1.33 1.32 1.33 1.38 1.37 1.26 1.14 1.10 1.05 0.91 0.91 0.95 1.00 0.92 0.94 0.90 0.89 0.87 0.87 0.83 0.78 0.84 0.78 0.75 0.84 0.91 0.85 0.80 0.71 0.63 0.67 0.71 0.73 0.75 0.76 0.80 0.82 0.80 0.80 0.83 0.86 0.88 0.90 0.92 0.91 0.89 0.91 0.91 0.88 0.80 0.72 0.66 0.61 0.57
0.48 0.48 0.50 0.47 0.46 0.47 0.47 0.47 0.48 0.52 0.55 0.58 0.60 0.62 0.62 0.62 0.63 0.62 0.61 0.65 0.75 0.84 0.86 0.87 0.89 0.92 0.97 1.00 1.06 1.12 1.23 1.27 1.32 1.33 1.31 1.29 1.25 1.21 1.19 1.17 1.06 0.96 0.94 0.93 1.02 0.89 0.88 0.90 0.91 0.89 0.87 0.83 0.87 0.89 0.91 0.98 0.93 0.92 0.85 0.78 0.73 0.71 0.72 0.75 0.78 0.79 0.80 0.81 0.81 0.80 0.81 0.84 0.87 0.89 0.90 0.91 0.89 0.86 0.84 0.81 0.78 0.70 0.61 0.57 0.53
0.50 0.53 0.54 0.53 0.49 0.46 0.45 0.44 0.44 0.46 0.51 0.56 0.57 0.59 0.60 0.60 0.60 0.61 0.63 0.64 0.66 0.72 0.81 0.86 0.86 0.91 0.95 0.95 0.97 0.99 0.98 1.04 1.16 1.26 1.26 1.28 1.29 1.28 1.28 1.19 1.14 1.06 0.98 0.92 0.95 0.91 0.85 0.88 0.92 0.91 0.90 0.87 0.92 0.94 0.99 1.00 0.94 0.94 0.90 0.84 0.78 0.76 0.75 0.78 0.79 0.80 0.81 0.82 0.82 0.80 0.80 0.83 0.86 0.87 0.88 0.86 0.81 0.81 0.80 0.78 0.73 0.66 0.59 0.56 0.54
0.51 0.52 0.53 0.52 0.52 0.50 0.48 0.46 0.46 0.46 0.47 0.51 0.55 0.56 0.57 0.58 0.59 0.62 0.60 0.64 0.63 0.64 0.70 0.79 0.83 0.87 0.89 0.91 0.90 0.90 0.91 0.92 1.02 1.17 1.28 1.31 1.35 1.35 1.32 1.30 1.17 1.04 1.03 0.92 0.88 0.90 0.95 0.85 0.89 0.92 0.91 0.96 1.03 1.07 1.07 1.00 0.95 0.92 0.90 0.84 0.80 0.80 0.80 0.80 0.81 0.82 0.84 0.84 0.81 0.80 0.79 0.80 0.81 0.83 0.83 0.80 0.77 0.74 0.73 0.74 0.74 0.67 0.59 0.56 0.55
0.51 0.51 0.51 0.53 0.53 0.52 0.50 0.49 0.49 0.48 0.47 0.48 0.53 0.56 0.57 0.57 0.57 0.59 0.60 0.62 0.63 0.62 0.65 0.69 0.79 0.87 0.90 0.89 0.90 0.93 0.92 0.90 0.90 1.01 1.19 1.32 1.33 1.33 1.35 1.29 1.29 1.17 1.07 0.97 0.91 0.89 0.97 0.94 0.82 0.89 0.95 1.11 1.11 1.12 1.03 0.94 0.96 0.97 0.92 0.87 0.84 0.82 0.82 0.82 0.82 0.85 0.85 0.83 0.79 0.78 0.76 0.76 0.78 0.79 0.79 0.76 0.72 0.68 0.69 0.73 0.75 0.69 0.62 0.59 0.57
0.53 0.53 0.53 0.52 0.52 0.51 0.49 0.48 0.48 0.48 0.47 0.48 0.50 0.55 0.58 0.59 0.58 0.59 0.62 0.63 0.63 0.64 0.64 0.64 0.66 0.76 0.84 0.90 0.92 0.95 1.00 1.01 0.97 0.98 1.06 1.19 1.24 1.28 1.38 1.38 1.37 1.27 1.23 1.09 1.01 1.02 0.95 0.99 0.94 0.88 0.97 1.12 1.17 1.15 1.13 0.99 0.95 0.93 0.89 0.89 0.86 0.83 0.82 0.83 0.84 0.87 0.86 0.82 0.79 0.77 0.76 0.76 0.77 0.77 0.76 0.72 0.68 0.67 0.69 0.73 0.76 0.72 0.64 0.61 0.59
0.49 0.49 0.50 0.50 0.50 0.50 0.50 0.49 0.49 0.49 0.50 0.49 0.50 0.52 0.56 0.57 0.57 0.57 0.60 0.63 0.63 0.63 0.64 0.65 0.65 0.65 0.69 0.77 0.85 0.87 0.93 0.95 0.98 1.05 1.06 1.03 1.09 1.17 1.22 1.35 1.37 1.35 1.31 1.25 1.10 1.13 1.10 0.97 1.00 1.02 0.97 1.08 1.12 1.13 1.12 1.02 0.98 0.94 0.91 0.91 0.87 0.85 0.84 0.84 0.87 0.87 0.85 0.81 0.78 0.77 0.76 0.76 0.75 0.74 0.71 0.68 0.68 0.68 0.70 0.75 0.78 0.73 0.65 0.61 0.59
0.50 0.50 0.49 0.47 0.47 0.47 0.48 0.48 0.47 0.47 0.47 0.49 0.50 0.50 0.53 0.56 0.57 0.57 0.57 0.60 0.62 0.63 0.64 0.66 0.65 0.65 0.64 0.64 0.72 0.79 0.88 0.93 0.98 1.06 1.13 1.11 1.01 0.99 1.01 1.11 1.30 1.35 1.34 1.28 1.22 1.15 1.26 1.14 1.07 1.05 1.02 1.04 1.14 1.05 1.02 0.97 1.00 0.97 0.92 0.94 0.86 0.87 0.84 0.84 0.85 0.83 0.81 0.79 0.78 0.77 0.76 0.75 0.72 0.70 0.67 0.67 0.68 0.69 0.72 0.79 0.78 0.71 0.64 0.61 0.59
0.50 0.47 0.45 0.44 0.46 0.47 0.47 0.48 0.47 0.47 0.47 0.47 0.49 0.50 0.51 0.53 0.56 0.59 0.59 0.58 0.58 0.62 0.65 0.65 0.67 0.66 0.64 0.63 0.62 0.67 0.78 0.82 0.89 0.99 1.08 1.15 1.05 0.92 0.93 0.97 1.18 1.30 1.31 1.26 1.21 1.22 1.26 1.31 1.20 1.12 1.09 1.09 1.07 1.11 1.06 0.94 0.93 0.94 0.93 0.89 0.90 0.86 0.82 0.83 0.81 0.80 0.79 0.78 0.78 0.77 0.75 0.72 0.69 0.66 0.66 0.68 0.69 0.71 0.77 0.81 0.77 0.69 0.63 0.60 0.58
0.50 0.48 0.46 0.44 0.45 0.46 0.45 0.46 0.46 0.46 0.47 0.47 0.48 0.49 0.48 0.50 0.53 0.57 0.58 0.59 0.58 0.57 0.61 0.63 0.66 0.67 0.65 0.63 0.63 0.64 0.66 0.72 0.78 0.85 0.91 0.93 0.98 0.97 0.95 0.93 0.96 1.14 1.30 1.27 1.26 1.24 1.17 1.30 1.27 1.24 1.22 1.18 1.09 1.12 1.08 0.98 0.93 0.85 0.77 0.85 0.90 0.89 0.84 0.83 0.82 0.81 0.80 0.79 0.78 0.75 0.72 0.68 0.66 0.66 0.67 0.68 0.71 0.74 0.79 0.80 0.75 0.68 0.62 0.58 0.56
0.49 0.47 0.45 0.44 0.44 0.45 0.45 0.45 0.46 0.46 0.46 0.46 0.47 0.47 0.48 0.48 0.49 0.53 0.56 0.57 0.58 0.58 0.57 0.59 0.63 0.66 0.66 0.65 0.64 0.65 0.66 0.64 0.70 0.79 0.85 0.88 0.94 0.97 0.95 0.90 0.80 0.94 1.13 1.26 1.27 1.23 1.21 1.22 1.33 1.28 1.28 1.23 1.18 1.14 1.10 1.04 0.97 0.83 0.74 0.84 0.86 0.82 0.80 0.84 0.83 0.83 0.81 0.79 0.76 0.73 0.71 0.69 0.69 0.70 0.72 0.74 0.75 0.78 0.81 0.79 0.74 0.68 0.61 0.58 0.55
0.47 0.47 0.46 0.46 0.45 0.45 0.44 0.45 0.45 0.45 0.46 0.46 0.46 0.46 0.47 0.47 0.48 0.49 0.52 0.55 0.58 0.60 0.60 0.60 0.61 0.62 0.64 0.65 0.66 0.67 0.66 0.63 0.62 0.68 0.80 0.85 0.90 0.98 1.02 0.94 0.91 0.85 0.92 1.11 1.23 1.23 1.24 1.16 1.28 1.30 1.33 1.26 1.25 1.24 1.15 1.10 0.97 0.80 0.80 0.84 0.83 0.77 0.75 0.77 0.80 0.82 0.80 0.78 0.75 0.75 0.74 0.73 0.74 0.74 0.74 0.75 0.77 0.80 0.81 0.77 0.73 0.67 0.61 0.57 0.55
0.47 0.46 0.46 0.47 0.46 0.46 0.45 0.46 0.46 0.47 0.47 0.47 0.46 0.46 0.46 0.47 0.48 0.49 0.50 0.52 0.55 0.57 0.60 0.62 0.62 0.62 0.63 0.64 0.66 0.69 0.68 0.64 0.64 0.62 0.68 0.77 0.84 0.86 0.89 0.94 1.01 1.02 0.92 0.99 1.13 1.26 1.25 1.15 1.23 1.35 1.34 1.34 1.29 1.24 1.16 1.09 0.96 0.84 0.80 0.79 0.79 0.78 0.77 0.79 0.81 0.82 0.78 0.77 0.77 0.77 0.76 0.76 0.76 0.75 0.76 0.78 0.79 0.80 0.80 0.76 0.71 0.65 0.60 0.57 0.55
0.47 0.46 0.46 0.47 0.48 0.47 0.48 0.48 0.49 0.50 0.50 0.50 0.50 0.49 0.48 0.47 0.47 0.48 0.49 0.50 0.52 0.55 0.57 0.60 0.62 0.63 0.63 0.63 0.67 0.70 0.69 0.67 0.66 0.65 0.67 0.72 0.80 0.85 0.87 0.94 1.08 1.11 1.01 0.92 1.03 1.17 1.24 1.20 1.21 1.32 1.31 1.29 1.27 1.18 1.14 1.10 0.96 0.85 0.76 0.75 0.77 0.77 0.75 0.76 0.77 0.79 0.77 0.77 0.78 0.79 0.78 0.78 0.78 0.79 0.81 0.80 0.79 0.80 0.78 0.75 0.71 0.66 0.62 0.59 0.56
0.45 0.45 0.46 0.47 0.48 0.49 0.50 0.50 0.50 0.50 0.51 0.51 0.51 0.51 0.51 0.50 0.48 0.47 0.46 0.47 0.49 0.51 0.55 0.58 0.61 0.63 0.64 0.65 0.66 0.68 0.70 0.70 0.70 0.71 0.69 0.70 0.81 0.83 0.87 0.96 1.00 0.98 1.07 1.03 0.95 1.05 1.16 1.18 1.21 1.28 1.27 1.29 1.25 1.11 1.11 1.05 1.01 0.94 0.79 0.68 0.69 0.73 0.75 0.74 0.74 0.75 0.75 0.81 0.82 0.80 0.81 0.83 0.82 0.81 0.82 0.80 0.79 0.78 0.78 0.77 0.72 0.67 0.64 0.61 0.55
0.44 0.44 0.45 0.46 0.48 0.50 0.50 0.50 0.51 0.51 0.51 0.51 0.51 0.52 0.52 0.52 0.51 0.50 0.49 0.47 0.47 0.48 0.49 0.54 0.57 0.60 0.63 0.65 0.66 0.67 0.69 0.72 0.74 0.75 0.76 0.72 0.73 0.77 0.83 0.90 0.98 1.04 1.08 1.08 1.05 0.99 1.06 1.15 1.20 1.19 1.20 1.19 1.18 1.14 1.11 1.05 0.99 0.94 0.92 0.78 0.67 0.65 0.67 0.71 0.73 0.71 0.73 0.78 0.78 0.80 0.85 0.86 0.82 0.82 0.80 0.80 0.79 0.80 0.80 0.78 0.74 0.70 0.67 0.60 0.52
0.45 0.46 0.47 0.48 0.48 0.49 0.49 0.50 0.50 0.51 0.51 0.51 0.52 0.52 0.52 0.52 0.53 0.53 0.52 0.52 0.51 0.49 0.49 0.50 0.53 0.57 0.60 0.64 0.66 0.67 0.68 0.71 0.73 0.76 0.79 0.80 0.76 0.72 0.78 0.91 1.01 1.00 1.01 1.09 1.12 0.96 0.99 1.09 1.17 1.21 1.18 1.15 1.07 0.99 0.99 0.98 0.94 0.90 0.90 0.82 0.74 0.74 0.75 0.72 0.70 0.72 0.74 0.76 0.78 0.81 0.83 0.82 0.80 0.81 0.81 0.81 0.83 0.84 0.83 0.80 0.76 0.72 0.65 0.57 0.50
0.46 0.47 0.48 0.49 0.49 0.48 0.48 0.49 0.51 0.51 0.51 0.52 0.53 0.53 0.53 0.53 0.54 0.54 0.55 0.54 0.53 0.53 0.51 0.49 0.50 0.53 0.59 0.62 0.66 0.66 0.67 0.69 0.72 0.74 0.76 0.78 0.81 0.80 0.78 0.82 0.85 0.88 0.98 1.06 1.09 1.04 0.97 1.04 1.12 1.14 1.07 1.07 1.01 0.93 0.97 1.02 1.02 1.01 0.94 0.86 0.75 0.75 0.75 0.71 0.71 0.74 0.77 0.77 0.78 0.79 0.81 0.82 0.80 0.81 0.82 0.84 0.86 0.86 0.85 0.81 0.78 0.72 0.63 0.56 0.49
0.45 0.46 0.48 0.48 0.48 0.49 0.49 0.50 0.50 0.51 0.51 0.52 0.53 0.54 0.54 0.55 0.55 0.54 0.54 0.54 0.55 0.55 0.54 0.53 0.50 0.50 0.54 0.59 0.64 0.67 0.67 0.67 0.68 0.71 0.74 0.76 0.77 0.79 0.80 0.80 0.87 0.87 0.90 1.04 1.13 1.07 1.06 1.03 1.13 1.11 1.07 1.01 0.96 0.95 0.97 1.03 1.06 1.02 0.97 0.90 0.79 0.77 0.72 0.65 0.61 0.69 0.77 0.78 0.80 0.80 0.79 0.82 0.83 0.84 0.86 0.87 0.89 0.87 0.87 0.83 0.81 0.72 0.62 0.54 0.48
0.44 0.46 0.46 0.47 0.48 0.49 0.50 0.50 0.50 0.51 0.51 0.52 0.53 0.53 0.54 0.54 0.54 0.54 0.54 0.53 0.53 0.53 0.53 0.54 0.54 0.54 0.52 0.53 0.60 0.66 0.69 0.69 0.69 0.71 0.72 0.74 0.75 0.76 0.78 0.79 0.76 0.81 1.03 1.13 1.15 1.10 1.09 1.04 1.08 1.11 1.06 1.04 0.99 0.97 0.97 1.00 1.00 1.02 1.00 0.90 0.81 0.80 0.74 0.70 0.70 0.69 0.77 0.80 0.78 0.78 0.78 0.84 0.86 0.87 0.87 0.86 0.90 0.92 0.88 0.89 0.84 0.74 0.62 0.54 0.47
0.44 0.44 0.45 0.46 0.47 0.48 0.49 0.49 0.49 0.51 0.51 0.53 0.53 0.53 0.53 0.54 0.54 0.54 0.53 0.52 0.51 0.52 0.53 0.53 0.53 0.54 0.55 0.54 0.54 0.61 0.67 0.69 0.71 0.73 0.76 0.76 0.75 0.75 0.77 0.78 0.77 0.75 0.80 1.06 1.21 1.18 1.14 1.12 1.08 1.10 1.06 1.08 1.04 1.00 1.03 1.02 1.04 0.98 0.94 0.85 0.84 0.83 0.80 0.78 0.79 0.78 0.78 0.83 0.80 0.77 0.76 0.83 0.88 0.89 0.90 0.90 0.89 0.91 0.91 0.88 0.82 0.71 0.61 0.52 0.45
0.44 0.44 0.45 0.46 0.47 0.48 0.49 0.50 0.50 0.51 0.51 0.52 0.52 0.52 0.53 0.53 0.54 0.54 0.53 0.52 0.51 0.51 0.51 0.52 0.54 0.53 0.54 0.55 0.53 0.55 0.62 0.68 0.72 0.72 0.76 0.77 0.79 0.78 0.75 0.75 0.76 0.74 0.72 0.78 1.00 1.14 1.22 1.22 1.20 1.10 1.09 1.11 1.04 1.12 1.16 1.17 1.08 0.98 0.91 0.86 0.89 0.82 0.81 0.84 0.88 0.87 0.89 0.89 0.84 0.82 0.80 0.86 0.93 0.91 0.89 0.91 0.89 0.90 0.90 0.86 0.79 0.68 0.57 0.48 0.44
0.44 0.44 0.45 0.46 0.47 0.49 0.50 0.51 0.50 0.50 0.51 0.52 0.52 0.52 0.52 0.52 0.53 0.53 0.53 0.53 0.52 0.51 0.51 0.51 0.53 0.53 0.54 0.54 0.54 0.55 0.59 0.65 0.70 0.72 0.75 0.78 0.79 0.81 0.80 0.75 0.75 0.75 0.70 0.70 0.83 1.03 1.20 1.31 1.36 1.26 1.22 1.18 1.16 1.16 1.19 1.20 1.16 1.07 0.99 0.97 0.97 0.94 0.95 0.98 0.95 0.93 0.92 0.93 0.91 0.89 0.85 0.92 0.95 0.90 0.89 0.88 0.88 0.90 0.91 0.85 0.75 0.62 0.51 0.45 0.43
0.46 0.47 0.47 0.48 0.48 0.49 0.50 0.51 0.50 0.49 0.51 0.52 0.52 0.52 0.52 0.52 0.53 0.52 0.52 0.52 0.51 0.51 0.51 0.51 0.51 0.53 0.54 0.54 0.53 0.54 0.57 0.61 0.67 0.72 0.76 0.81 0.82 0.80 0.79 0.82 0.79 0.76 0.73 0.70 0.77 0.96 1.12 1.27 1.41 1.40 1.33 1.27 1.23 1.23 1.22 1.22 1.19 1.14 1.08 1.06 1.02 0.98 0.97 0.94 0.91 0.91 0.91 0.96 0.98 1.00 0.97 0.95 0.97 0.91 0.90 0.86 0.87 0.89 0.90 0.83 0.70 0.55 0.47 0.43 0.44
0.46 0.47 0.47 0.48 0.49 0.49 0.50 0.50 0.49 0.49 0.49 0.51 0.52 0.53 0.53 0.53 0.53 0.52 0.52 0.52 0.51 0.51 0.51 0.52 0.52 0.52 0.54 0.54 0.54 0.53 0.54 0.56 0.62 0.70 0.77 0.81 0.81 0.81 0.81 0.81 0.85 0.84 0.74 0.71 0.74 0.89 1.09 1.25 1.33 1.33 1.31 1.28 1.29 1.33 1.28 1.26 1.21 1.15 1.06 1.01 0.97 0.99 0.98 0.95 0.98 1.00 0.98 1.00 1.02 1.06 1.02 0.94 0.96 0.91 0.85 0.84 0.86 0.87 0.84 0.76 0.63 0.50 0.46 0.45 0.47
0.46 0.47 0.48 0.48 0.49 0.50 0.49 0.49 0.50 0.49 0.49 0.52 0.53 0.53 0.54 0.54 0.55 0.54 0.54 0.54 0.53 0.53 0.53 0.54 0.53 0.52 0.53 0.54 0.55 0.54 0.54 0.55 0.59 0.67 0.75 0.82 0.82 0.81 0.81 0.83 0.83 0.81 0.82 0.78 0.71 0.75 0.96 1.14 1.25 1.36 1.34 1.32 1.29 1.32 1.34 1.29 1.25 1.16 1.09 0.97 1.00 1.01 0.99 1.01 0.99 1.01 1.02 1.01 1.04 1.08 0.99 0.93 0.93 0.89 0.81 0.82 0.85 0.82 0.77 0.69 0.58 0.49 0.47 0.49 0.48
0.47 0.48 0.48 0.48 0.48 0.49 0.49 0.50 0.50 0.50 0.51 0.52 0.54 0.55 0.56 0.57 0.57 0.57 0.57 0.56 0.54 0.54 0.54 0.53 0.54 0.53 0.53 0.54 0.55 0.54 0.54 0.55 0.58 0.63 0.72 0.80 0.83 0.85 0.84 0.82 0.81 0.82 0.84 0.80 0.71 0.68 0.75 0.92 1.07 1.14 1.17 1.27 1.32 1.34 1.34 1.31 1.27 1.18 1.16 1.09 1.07 1.03 0.99 0.98 0.97 0.97 0.93 0.96 1.03 1.07 0.98 0.93 0.90 0.87 0.82 0.81 0.77 0.75 0.69 0.62 0.57 0.53 0.51 0.50 0.47
Wind_Speed
18 18 18 18 17 17 18 18 19 18 17 17 17 17 18 18 18 19 19 19 20 20 20 20 20 20 20 20 20 20 19 19 18 18 18 17 18 18 18 18 18 18 18 18 17 17 16 16 15 14 13 12 11 10 9 9 8 8 8 7 7 8 8 9 10 10 10 10 10 10 10 11 11 12 13 13 14 15 15 16 16 17 17 18 18
18 18 18 18 17 17 18 19 19 19 18 17 17 17 18 18 18 19 19 19 20 20 20 20 21 21 21 21 21 21 21 20 19 19 18 18 18 18 19 19 18 18 18 19 18 18 17 17 16 15 14 13 13 12 11 10 9 9 9 8 8 9 9 9 10 10 10 9 9 10 10 10 11 12 13 14 14 15 15 16 16 16 17 17 18
19 19 19 18 18 18 18 19 19 19 18 18 18 18 18 19 19 19 19 19 20 21 21 21 21 22 22 22 22 22 22 21 21 20 19 19 19 19 19 19 19 19 19 19 19 18 18 17 17 16 15 15 14 13 12 11 11 10 9 9 9 9 9 9 10 10 9 8 9 10 10 10 11 12 13 14 14 15 15 15 15 16 17 17 18
18 19 20 19 19 19 18 19 20 19 19 18 18 19 19 19 19 19 19 20 20 21 21 21 21 22 22 23 23 23 23 23 22 22 21 20 19 19 19 20 20 20 20 20 19 19 19 18 18 17 16 16 15 14 13 12 12 11 10 10 10 10 10 9 10 10 9 8 9 9 10 10 11 12 13 14 14 14 14 14 15 15 16 17 18
18 19 20 20 20 20 19 20 21 21 20 19 19 19 19 19 19 19 20 20 20 20 21 22 22 22 23 23 23 24 24 24 24 23 23 22 21 20 20 20 20 20 20 20 20 20 20 19 19 18 17 17 16 15 14 13 13 12 11 11 10 10 10 10 10 9 8 8 9 9 10 11 12 13 13 14 14 14 14 14 14 15 16 17 17
18 19 21 21 21 21 21 21 21 21 20 20 20 19 20 20 20 20 20 20 20 21 21 22 23 23 23 23 24 24 25 25 25 25 24 23 23 22 21 20 20 21 21 21 21 21 21 21 20 19 18 18 17 16 15 14 14 13 12 12 11 10 10 10 10 9 8 9 9 10 11 11 12 13 13 13 13 13 13 13 14 15 15 16 17
19 19 21 22 22 22 22 22 22 22 21 21 21 20 20 21 20 20 20 20 20 21 21 22 23 23 24 24 24 25 25 25 25 25 25 25 24 23 23 22 21 21 21 21 22 21 22 22 21 20 19 19 18 17 16 15 14 14 13 13 12 11 11 11 10 9 9 9 10 10 11 11 12 13 13 13 12 12 13 13 14 14 15 16 17
19 20 20 22 23 23 24 24 23 23 22 22 22 22 21 21 21 21 21 21 21 21 21 22 23 23 24 24 25 25 26 26 26 26 26 26 25 25 24 23 22 22 21 21 22 22 22 22 22 21 20 20 19 18 17 16 15 15 14 14 13 12 11 11 10 9 10 10 10 11 11 12 12 13 12 12 12 12 13 13 14 14 15 16 17
20 20 21 21 23 24 25 25 25 25 24 23 24 23 23 22 22 23 23 22 22 22 22 22 23 23 24 25 25 26 26 26 27 27 27 27 26 26 25 25 24 23 22 22 22 22 22 22 23 22 22 21 20 20 19 17 16 16 15 15 14 13 12 12 11 10 11 10 11 11 11 12 12 12 12 11 11 12 12 13 13 14 15 16 17
21 21 21 22 23 24 24 25 25 26 26 25 25 25 25 24 24 23 23 23 23 23 23 22 23 24 24 25 25 26 27 27 27 28 28 28 27 27 26 26 25 25 24 24 23 22 23 23 23 23 23 22 21 21 20 19 18 17 16 16 15 14 13 13 12 12 12 11 11 11 12 12 12 12 11 11 11 12 12 13 13 14 15 16 17
22 22 22 23 23 24 24 24 23 25 27 27 27 27 27 27 26 25 24 25 24 24 24 23 23 24 24 25 26 26 26 27 28 29 29 29 28 28 27 27 26 26 26 25 25 24 23 23 24 24 24 24 23 22 22 20 19 18 17 16 16 15 14 14 13 13 12 12 11 11 12 12 12 12 11 11 11 12 12 12 13 14 15 16 17
23 23 24 24 24 25 25 24 23 24 26 27 29 30 29 29 28 28 27 26 25 25 25 25 24 25 25 25 26 26 27 27 28 29 29 30 30 29 28 28 28 27 27 27 26 25 24 24 24 24 24 24 24 24 23 22 21 19 18 18 17 17 16 15 14 14 13 13 12 12 12 12 12 11 11 11 11 12 12 12 13 14 15 16 17
23 24 24 25 25 26 26 26 25 25 25 26 28 30 31 31 30 30 29 28 28 27 26 26 26 26 26 26 27 27 28 28 28 29 30 30 30 30 30 30 29 28 28 28 28 27 26 25 25 24 24 24 24 24 24 24 23 21 20 20 19 18 17 16 16 15 14 13 13 13 13 12 11 11 11 11 12 12 12 12 14 14 15 16 17
23 24 24 25 25 26 26 27 27 27 27 27 28 29 31 32 32 32 32 31 30 29 28 27 27 27 26 26 27 28 29 29 29 29 30 30 30 31 31 31 30 30 30 29 29 28 27 27 26 25 25 24 24 25 25 24 24 23 22 21 20 19 18 17 17 16 15 14 14 13 13 12 12 12 11 12 12 12 13 13 14 14 15 16 16
23 23 24 25 25 26 26 27 27 28 28 28 29 29 30 32 33 34 34 33 32 32 31 30 29 29 27 27 27 28 29 29 30 30 30 31 31 31 32 32 31 31 31 30 30 29 29 28 28 27 26 25 25 25 25 25 25 24 24 23 22 21 19 18 18 17 16 15 15 14 14 13 12 12 12 12 12 13 13 13 14 14 15 16 16
24 24 24 25 25 26 26 27 28 28 28 28 29 29 30 31 33 35 35 35 34 33 33 32 31 31 29 29 28 28 28 29 30 31 31 32 32 32 32 32 32 32 32 31 31 31 30 30 29 29 28 28 26 25 25 25 25 24 24 24 23 22 20 19 19 18 17 16 15 15 14 13 13 13 13 13 13 13 13 13 14 15 15 16 16
24 24 25 25 26 26 27 27 28 29 29 29 29 30 30 31 32 34 35 36 36 35 35 34 34 34 32 30 29 28 28 28 29 30 31 32 33 33 33 33 33 33 32 32 32 32 31 31 31 30 29 29 28 27 26 25 25 25 25 25 24 23 21 21 20 19 18 17 16 15 15 14 13 14 13 13 13 13 13 13 14 15 15 15 16
24 25 26 26 27 27 27 27 28 29 30 30 30 30 31 32 32 33 34 35 36 36 37 36 35 36 36 34 32 30 28 27 28 29 30 32 33 33 34 34 34 33 33 33 32 32 32 32 32 31 31 30 30 30 29 27 27 26 26 26 26 24 23 22 21 20 19 18 17 16 15 14 14 14 14 14 13 13 13 14 14 15 15 15 16
23 24 25 26 27 28 29 29 29 29 30 31 31 31 32 32 33 33 34 35 35 37 38 37 36 37 37 37 36 35 32 30 29 28 29 30 32 33 34 34 34 34 33 33 33 32 32 32 32 33 32 32 32 32 31 30 29 28 27 27 27 25 24 23 22 21 20 19 18 17 16 15 15 14 14 14 14 14 14 14 14 14 15 16 16
23 24 25 26 27 28 29 29 30 30 31 31 32 32 33 33 34 34 34 35 36 37 37 37 39 39 38 38 37 36 36 34 32 30 29 29 30 31 33 34 34 35 34 34 33 33 33 32 32 32 33 33 33 33 32 31 30 30 29 28 28 26 25 24 23 21 21 19 18 17 17 16 15 15 15 14 14 14 14 14 14 14 15 16 16
23 24 25 25 26 27 28 29 30 31 31 32 32 33 33 34 35 35 35 36 37 37 37 37 38 38 39 39 38 37 36 36 35 34 32 31 30 30 30 32 33 34 35 35 34 33 33 33 32 32 32 33 33 32 32 31 30 30 29 29 28 27 26 25 24 22 21 20 19 18 17 17 16 16 16 15 15 15 14 14 14 15 16 17 17
22 23 24 25 26 27 28 29 30 31 32 33 33 34 35 35 36 36 36 37 38 38 38 38 38 38 38 39 40 38 37 36 35 35 35 34 32 31 30 31 32 33 34 35 35 35 34 33 33 32 32 32 32 32 32 31 31 30 29 29 29 28 27 25 24 23 22 21 20 19 18 17 17 17 16 16 16 15 14 14 15 16 17 17 18
22 23 24 25 26 27 28 29 30 31 32 33 34 35 35 36 37 37 37 38 39 39 40 40 39 39 39 39 40 40 38 36 36 36 35 35 34 33 33 32 32 32 33 34 35 36 35 35 34 33 32 32 31 31 31 31 31 30 29 29 28 28 27 26 25 24 23 22 21 20 19 18 17 17 17 17 16 16 15 15 16 17 18 18 19
23 24 25 26 27 28 29 30 30 31 32 33 33 34 35 36 37 38 38 38 39 39 40 40 40 40 40 40 41 41 40 38 37 37 36 35 35 34 34 34 33 33 32 33 35 36 36 36 35 34 33 32 31 30 30 30 30 29 28 28 28 28 27 26 26 24 24 23 22 21 20 19 18 18 17 17 17 17 16 17 17 18 18 19 19
25 26 26 27 28 28 29 30 31 32 32 33 34 34 35 36 37 38 39 39 39 40 40 40 41 41 41 41 41 42 42 40 39 38 37 36 36 35 34 35 34 33 33 33 33 34 35 36 35 34 34 33 31 31 30 30 29 29 28 28 28 28 27 27 26 25 24 23 22 21 20 20 19 19 18 18 18 17 17 18 18 19 19 20 20
26 27 28 28 29 30 30 31 32 33 33 34 34 35 35 36 37 38 39 40 40 40 41 41 41 41 41 42 42 43 44 43 41 41 40 39 38 36 35 34 35 34 33 33 33 33 34 35 36 35 34 34 33 31 31 30 29 29 28 28 28 28 28 27 26 25 25 24 23 22 21 21 20 19 19 18 18 18 18 19 20 20 20 21 21
27 28 28 29 30 31 32 32 33 34 34 35 35 35 36 36 37 38 39 39 41 41 41 41 42 42 42 42 42 43 44 44 44 43 42 41 41 39 37 34 34 34 33 33 34 33 33 34 35 35 34 34 33 31 30 30 29 29 29 28 28 28 28 28 27 26 25 25 24 23 22 22 21 20 19 19 19 19 20 20 20 21 21 21 22
29 29 30 30 31 32 33 33 34 34 35 35 36 36 36 37 37 38 38 39 40 42 42 42 42 43 43 43 43 43 43 44 44 44 43 42 41 41 41 37 34 33 33 33 33 33 33 33 34 35 34 34 33 31 31 30 30 30 29 29 28 28 28 28 27 27 26 25 24 24 23 22 21 20 20 20 20 20 21 21 21 21 21 21 22
30 30 31 31 32 32 33 34 34 35 35 36 36 37 37 37 37 37 38 39 39 41 42 43 43 43 43 44 44 44 43 43 44 44 44 44 43 43 43 41 37 35 34 33 33 32 33 33 33 34 33 33 32 32 32 31 31 30 30 30 29 29 29 29 28 28 27 26 25 24 24 23 22 21 21 21 21 21 21 21 21 22 22 22 22
31 32 32 33 33 33 34 34 34 34 35 35 36 37 37 38 38 38 38 38 39 40 41 42 43 43 44 44 44 44 44 43 44 44 44 44 44 44 43 43 41 39 36 34 33 33 33 34 35 34 33 33 32 33 33 32 32 32 31 30 30 29 29 29 28 28 28 27 26 25 24 23 22 22 22 21 21 22 22 22 22 22 22 22 22
32 33 33 34 34 34 34 34 34 34 35 35 36 36 37 38 38 39 39 39 40 40 40 41 42 43 44 45 45 44 44 44 44 44 44 44 44 44 43 44 43 43 40 37 36 34 33 33 36 36 35 35 33 33 33 33 33 33 32 31 30 30 30 29 29 29 28 27 27 26 25 24 23 23 23 22 22 23 23 22 23 23 23 23 23
33 33 34 35 35 34 34 34 34 34 35 35 36 36 37 37 38 39 39 40 40 41 41 41 41 42 44 45 46 45 44 44 45 44 44 44 44 44 44 44 44 44 43 40 38 36 34 33 35 36 36 36 35 34 34 34 34 34 33 32 31 31 30 30 30 29 29 28 27 26 26 25 24 24 23 23 23 23 23 23 23 23 23 23 23
34 34 35 35 35 35 35 35 35 35 35 35 36 36 37 37 38 38 39 40 41 41 41 42 42 42 43 44 45 46 46 45 45 45 45 45 45 45 44 44 45 45 43 42 39 37 36 34 34 36 37 36 35 34 33 34 34 35 33 32 32 32 31 30 30 30 29 29 28 27 27 26 25 25 24 24 24 24 24 24 24 23 23 23 24
34 34 35 35 35 35 35 35 35 35 36 36 36 36 37 38 38 38 39 40 41 41 41 42 42 42 43 44 44 45 46 47 46 46 46 46 46 45 45 44 45 45 44 43 40 38 36 33 32 34 36 36 34 33 33 33 35 35 34 33 33 33 32 32 31 30 30 30 29 28 27 27 26 25 25 24 25 24 24 24 24 24 23 24 24
35 35 35 35 35 35 35 35 35 36 36 36 36 37 38 39 39 39 40 40 41 41 42 42 42 42 43 44 44 44 45 47 47 47 46 47 47 46 46 46 46 46 46 45 43 39 36 34 32 33 34 35 34 34 33 33 34 35 34 34 34 34 33 33 32 31 31 30 29 29 28 27 27 26 26 25 25 25 24 24 24 24 24 24 25
35 35 35 35 35 36 36 36 36 36 36 37 37 38 38 39 40 40 40 41 41 42 42 42 42 42 43 44 44 44 45 46 48 48 47 47 48 47 47 46 46 46 47 47 46 43 40 37 35 34 34 34 34 34 33 32 33 34 33 33 34 33 33 33 32 31 31 31 30 29 28 28 27 27 26 26 25 25 25 25 24 24 24 25 25
36 36 36 36 36 36 37 37 37 37 37 37 38 38 39 39 40 41 41 42 42 42 43 43 43 43 43 44 44 44 45 46 47 48 48 48 48 48 48 47 46 46 46 47 48 46 43 41 38 35 34 34 33 33 34 33 33 33 33 33 33 33 33 33 32 32 31 30 29 29 28 28 27 27 26 26 25 25 25 25 25 25 25 25 26
37 37 37 37 37 38 38 38 38 38 38 38 38 39 39 39 40 41 42 42 43 43 43 44 44 44 44 44 44 44 45 46 46 47 48 48 48 48 49 49 48 46 46 47 49 48 46 44 41 38 36 34 32 33 34 34 34 34 34 33 33 32 32 32 31 31 31 31 30 29 29 28 28 27 26 26 26 26 25 25 25 25 25 25 26
38 38 38 38 38 39 39 39 39 39 39 39 39 39 39 39 40 41 42 43 43 44 44 45 45 45 45 45 45 45 45 46 46 47 48 48 48 48 48 49 49 49 47 47 48 48 48 46 43 42 39 36 33 32 33 34 35 35 34 34 33 32 32 31 31 31 31 31 30 29 29 28 28 27 26 26 26 26 26 25 25 25 25 25 26
38 38 39 39 39 39 39 39 40 39 40 40 39 39 39 40 40 41 42 43 44 44 45 45 46 46 46 46 47 47 46 46 47 47 47 48 48 48 49 49 49 49 48 47 47 49 49 47 44 43 43 40 37 34 33 34 34 34 34 34 33 32 32 31 31 31 31 30 30 30 30 29 28 27 27 27 26 26 25 25 25 25 25 25 25
39 39 39 40 40 40 40 40 40 40 40 40 40 40 40 40 40 41 41 42 43 44 45 46 46 47 47 47 47 48 48 47 48 48 47 47 48 48 49 48 49 50 49 47 46 48 50 49 46 44 44 42 39 36 35 35 35 34 34 33 32 32 32 31 31 31 31 31 30 30 30 30 29 28 27 27 26 26 25 25 25 25 25 25 26
39 40 40 40 41 41 41 41 41 41 41 41 40 40 41 41 41 41 42 42 43 44 45 46 47 47 47 48 48 49 49 49 49 49 49 49 49 49 49 49 49 50 51 49 47 47 49 49 47 46 45 43 40 38 37 36 35 34 34 33 32 32 32 31 31 31 32 31 30 30 30 30 29 28 28 27 26 26 25 25 26 25 25 25 26
39 39 40 40 41 41 42 42 42 42 42 41 42 42 42 42 43 43 43 44 44 45 45 46 47 47 48 48 48 49 49 49 49 50 50 51 50 50 50 50 50 50 51 50 48 47 48 48 48 47 47 45 42 40 38 37 36 35 34 34 33 32 32 32 31 31 32 31 30 29 29 30 29 28 28 27 27 26 26 26 26 24 24 25 26
38 39 39 39 40 41 41 42 42 43 43 43 43 43 44 44 44 45 45 45 46 46 46 47 47 47 47 48 48 48 49 49 49 50 50 51 52 51 51 51 51 51 51 50 49 48 48 49 49 49 47 45 42 41 39 38 37 36 35 34 34 33 33 32 32 32 32 31 30 29 29 29 29 28 28 28 27 26 27 26 25 24 25 26 27
37 38 38 39 40 40 41 42 43 43 43 44 44 45 45 45 46 46 47 47 48 48 48 48 48 48 48 48 48 48 48 48 49 49 49 49 51 52 52 51 51 52 53 52 50 48 48 49 49 49 48 45 42 40 39 39 38 37 36 35 34 33 33 33 32 32 31 31 30 29 28 28 28 28 28 27 26 26 25 25 25 25 25 26 28
36 37 38 39 39 40 41 42 42 43 44 44 45 45 46 46 47 47 48 49 50 50 50 50 49 49 49 48 49 49 49 48 48 48 49 48 48 49 51 51 52 52 53 54 52 49 48 48 49 48 49 47 44 41 39 39 39 38 36 35 34 33 33 32 32 31 31 31 30 28 28 28 28 28 28 26 25 25 25 25 25 25 26 27 28
36 36 37 38 39 40 40 41 42 43 44 44 45 46 47 47 48 49 49 50 51 51 52 51 51 51 50 50 50 49 49 48 47 47 48 48 47 47 49 50 51 52 53 54 54 52 49 49 48 47 47 47 46 43 41 40 39 38 36 35 34 33 32 31 30 31 31 31 30 28 27 28 28 28 27 26 25 25 25 25 26 26 27 28 29
35 36 37 38 39 40 40 41 43 44 44 45 46 47 48 48 49 50 50 51 52 52 52 52 52 51 51 51 51 50 50 49 48 47 47 47 47 47 47 48 49 50 52 53 54 54 52 50 49 48 47 47 46 44 42 41 40 38 36 35 35 33 32 30 30 31 31 31 31 29 28 27 27 27 27 26 25 25 26 25 26 27 27 28 28
35 36 37 38 38 39 40 41 43 44 45 45 46 47 48 49 50 50 51 51 51 52 52 52 52 52 51 52 51 50 50 50 49 48 46 46 46 46 47 47 47 48 49 51 52 53 52 51 50 49 48 48 47 45 43 43 42 40 38 37 36 35 33 31 31 31 32 32 32 30 28 27 27 26 25 25 25 26 26 25 26 27 27 28 28
35 36 37 38 38 39 41 42 43 44 45 46 46 48 48 49 50 50 50 50 50 51 51 51 51 51 51 52 52 51 50 50 49 48 46 45 45 46 46 46 46 47 47 48 49 51 50 49 49 49 48 48 48 46 44 43 43 42 40 39 38 36 35 34 33 32 32 33 33 31 29 28 27 26 25 25 25 26 25 25 26 27 27 27 27
35 36 36 37 38 39 40 42 43 44 45 45 46 47 47 48 48 48 48 49 49 49 49 49 49 50 50 50 51 52 51 50 49 48 47 45 44 45 45 45 46 46 46 46 48 49 49 49 48 47 46 46 47 47 45 44 43 43 42 41 39 38 36 35 34 33 32 33 33 32 29 28 28 26 26 25 25 25 25 25 25 26 27 27 27
Wind_Direction
217 215 215 214 215 215 213 211 210 209 209 209 210 211 211 210 210 211 212 214 214 214 215 216 215 215 217 216 215 214 214 214 214 213 212 212 213 213 212 213 214 215 216 217 218 219 221 222 224 227 231 235 238 242 246 251 258 264 270 279 289 298 306 311 317 324 330 333 336 338 341 344 346 348 347 347 347 349 350 351 353 354 355 356 357
220 217 216 217 217 215 214 213 212 211 210 210 212 213 213 213 214 213 214 216 217 217 218 219 219 218 219 220 219 218 217 217 217 217 216 215 215 215 215 216 217 218 219 220 222 223 224 226 228 230 233 237 240 243 247 252 258 264 268 275 285 294 301 306 313 321 326 330 334 336 338 341 343 345 345 344 345 347 349 350 351 352 354 355 356
221 219 218 218 218 217 216 217 215 213 213 213 214 214 215 216 216 216 216 218 219 218 220 221 222 222 221 221 221 220 220 219 220 220 219 218 217 219 220 220 220 222 223 224 225 227 228 229 231 233 235 238 241 243 247 252 257 262 265 272 281 289 296 302 309 317 322 326 331 334 335 338 341 343 342 342 343 345 347 348 349 351 353 354 355
222 221 221 222 221 221 221 221 219 218 217 215 215 216 217 218 218 220 220 221 221 220 221 223 225 226 225 224 223 222 222 221 222 222 222 221 221 222 223 224 224 224 225 227 228 229 231 232 233 236 237 239 241 243 247 250 256 259 262 269 277 284 291 297 305 312 318 322 328 331 332 334 337 339 339 340 342 344 345 346 348 350 352 353 353
229 225 225 225 224 223 223 225 223 221 221 217 216 218 218 219 219 222 222 222 222 222 222 224 226 228 228 226 225 225 224 223 223 224 224 224 224 223 224 226 226 226 227 229 230 232 233 234 235 237 238 240 242 244 247 250 254 257 259 265 271 279 285 292 302 307 313 319 323 327 329 332 333 335 336 338 340 342 343 345 346 348 350 351 352
235 231 228 227 227 226 226 227 225 223 223 219 218 220 220 221 220 221 222 222 223 224 224 225 226 228 229 229 227 227 226 226 225 225 226 226 226 226 225 227 227 229 230 230 231 233 234 235 236 238 239 241 242 244 247 249 253 255 257 261 267 274 281 289 297 301 307 314 318 323 327 329 331 332 334 336 338 340 341 343 345 347 349 350 350
238 235 232 230 230 229 229 231 229 225 225 223 221 222 222 223 223 223 223 224 225 226 226 228 228 228 229 229 229 229 228 228 228 227 227 227 228 228 228 228 229 230 232 232 233 235 235 236 237 238 239 240 242 244 246 248 251 254 255 258 263 270 278 287 292 294 302 309 313 319 324 326 328 330 331 333 335 337 339 341 344 346 347 348 348
240 238 237 233 232 232 231 234 231 226 227 226 224 225 225 225 225 225 225 225 227 229 229 230 231 230 230 230 230 230 230 230 231 230 230 229 230 230 230 230 230 231 232 233 235 236 236 236 237 238 239 240 241 243 245 246 248 252 254 254 260 267 275 284 286 289 298 303 309 315 319 322 326 327 328 329 331 334 337 339 342 345 346 346 347
241 240 240 237 236 234 234 235 232 228 229 228 227 227 227 227 228 228 228 228 228 231 232 232 233 233 231 231 230 231 231 231 231 232 232 232 231 231 231 231 232 233 233 234 235 237 236 236 237 238 239 240 241 242 244 246 248 251 252 253 258 264 273 281 281 285 293 298 305 310 314 319 322 324 324 325 327 331 334 338 341 343 344 344 345
243 242 241 240 239 238 238 237 234 232 231 231 230 230 230 230 230 230 230 230 231 233 235 234 234 235 234 233 232 232 232 232 232 232 233 234 233 233 233 233 233 234 235 235 236 236 237 237 237 238 239 239 241 242 243 246 248 250 251 251 257 263 272 277 275 281 289 293 300 306 310 315 319 321 320 321 324 328 331 336 339 341 342 342 343
245 244 244 242 242 241 242 240 237 235 235 234 233 233 233 233 233 233 232 232 232 234 236 237 237 237 237 236 234 233 234 233 233 234 234 235 235 235 235 235 235 235 236 237 237 236 236 237 237 238 239 239 241 242 244 246 249 251 250 250 257 262 271 273 269 278 285 287 294 301 306 310 315 316 315 317 321 325 329 333 336 338 339 340 342
247 247 246 245 244 244 244 243 241 240 239 238 237 236 235 235 235 236 236 235 235 235 236 238 240 239 239 239 237 235 235 234 234 235 235 236 236 237 237 237 237 237 238 238 238 237 237 237 238 239 240 239 240 242 245 247 249 252 250 251 257 262 269 268 265 275 281 283 290 296 301 305 309 311 310 313 317 322 326 330 333 335 337 338 340
249 248 248 247 246 246 245 245 244 243 242 241 240 239 238 237 236 237 238 238 237 236 235 237 240 241 240 240 239 238 237 236 235 236 237 237 238 238 238 238 239 239 239 239 239 239 238 238 239 240 241 241 242 243 245 247 249 251 250 252 256 260 267 265 263 272 277 279 285 291 296 299 303 306 306 309 313 318 322 326 330 331 333 336 338
249 249 249 249 248 248 247 246 246 245 245 244 243 242 241 239 238 238 239 240 239 238 237 237 239 240 239 239 240 240 239 238 238 237 237 238 239 239 240 240 240 240 240 239 239 240 239 239 239 240 241 242 243 244 245 248 249 250 249 251 253 258 265 262 261 270 273 276 282 287 291 293 297 301 302 306 311 315 318 322 326 328 330 333 336
250 249 250 250 250 250 249 248 247 247 247 246 246 245 243 241 240 239 240 241 240 239 239 239 239 240 240 239 240 240 239 239 239 239 238 238 239 239 240 240 240 241 240 240 240 240 240 240 240 240 241 241 243 245 246 248 250 250 249 249 251 256 262 261 260 267 271 273 278 282 286 288 292 296 299 305 309 313 316 320 322 324 327 331 334
251 251 250 251 250 251 250 249 249 248 247 247 246 246 246 244 242 241 240 241 241 239 238 239 239 240 241 241 241 240 241 240 239 240 239 239 239 239 240 240 240 240 240 240 241 241 240 241 241 241 241 242 243 245 247 249 249 250 249 248 250 254 259 260 258 263 268 270 274 278 281 283 287 291 296 302 306 310 314 316 319 321 324 328 331
254 252 252 251 251 251 251 251 250 250 249 248 247 247 247 246 244 242 241 241 241 239 239 240 239 240 242 242 241 241 242 242 240 239 239 239 240 240 240 240 240 240 241 241 241 241 241 241 241 241 242 242 244 245 246 248 249 250 250 247 249 252 256 258 257 261 265 267 270 274 277 279 283 287 292 298 302 306 310 312 315 318 322 325 328
256 254 253 253 252 252 251 251 251 251 250 250 249 248 247 247 246 244 243 242 241 239 239 240 240 241 242 242 243 242 244 244 243 242 240 238 239 240 240 240 240 241 241 241 241 242 242 241 241 242 242 243 244 245 246 247 248 250 251 248 248 251 254 256 256 258 262 264 266 270 273 275 279 284 288 293 297 300 305 308 311 315 319 322 325
258 257 256 255 254 253 252 252 251 251 251 251 250 249 248 248 247 245 244 243 242 240 239 239 240 242 241 241 242 243 245 246 244 244 243 239 239 240 240 240 240 241 241 241 242 242 242 242 243 243 243 243 244 245 246 247 248 250 250 248 247 249 253 254 254 256 258 260 263 266 269 272 276 281 284 289 293 297 301 304 307 312 315 318 321
261 259 259 258 256 255 254 253 252 252 251 251 251 251 250 249 248 247 245 244 243 242 241 241 241 243 242 240 241 241 243 246 245 244 245 243 241 240 241 240 240 241 242 242 242 243 243 243 243 244 244 243 244 245 246 246 248 249 250 247 245 248 251 252 252 254 256 258 260 263 266 270 274 279 282 286 290 294 298 300 303 307 311 314 318
263 261 260 259 258 257 256 255 254 253 252 252 251 251 251 250 249 248 246 245 245 244 243 243 243 243 242 240 240 241 242 245 246 245 246 246 245 242 241 241 241 241 242 243 243 243 243 243 243 244 244 244 244 244 245 245 246 248 248 245 244 246 249 250 250 251 253 255 258 261 264 268 273 277 281 285 288 291 294 296 299 304 308 312 316
266 265 263 261 260 259 258 257 256 255 254 253 252 251 251 251 250 249 248 247 246 245 245 244 244 244 243 240 239 240 242 243 244 245 245 246 247 246 243 242 243 243 243 243 242 242 243 243 242 243 244 244 243 244 244 244 244 245 245 243 243 244 246 247 248 249 251 253 256 259 262 266 271 276 279 284 287 288 290 294 297 302 305 309 313
270 268 266 264 263 262 260 259 257 256 255 255 254 252 251 251 250 250 249 248 247 246 246 245 245 245 244 242 240 240 241 242 242 243 244 245 246 247 246 246 245 244 244 243 242 242 242 243 243 243 243 243 242 243 243 243 242 242 242 241 241 242 244 245 246 247 249 251 255 257 259 263 269 274 278 282 285 286 289 293 296 300 304 307 310
270 269 267 267 266 265 263 262 259 258 256 255 255 254 253 252 251 250 249 249 248 248 247 246 245 245 245 244 242 240 241 242 242 243 244 245 245 246 247 247 246 245 246 243 242 242 242 243 243 243 243 243 242 242 242 242 241 239 239 240 240 241 242 243 244 246 247 250 254 257 259 262 267 272 276 280 283 286 289 292 295 298 302 305 308
271 271 270 269 269 267 266 264 262 260 258 257 255 255 254 253 252 251 250 249 249 248 248 246 245 245 245 245 243 241 241 242 243 243 243 245 245 246 247 248 246 247 247 244 240 241 242 243 243 243 242 242 242 241 240 241 241 238 238 239 239 239 241 242 243 244 246 249 253 256 258 261 265 269 273 277 281 284 288 291 294 297 300 303 306
273 273 272 272 271 269 268 266 265 263 261 259 257 255 255 254 253 252 250 249 249 249 248 248 247 246 245 244 244 243 242 242 243 244 244 244 244 244 246 248 248 247 247 245 241 241 243 243 242 242 242 241 241 241 240 240 241 238 238 239 239 239 240 240 241 243 245 247 251 255 258 260 264 267 271 275 278 282 286 290 292 295 298 301 304
274 274 273 273 272 271 270 268 266 264 262 261 259 257 256 254 253 252 251 250 249 249 249 248 247 246 245 245 245 244 244 244 244 244 245 244 243 242 243 246 248 247 247 245 242 241 243 243 242 241 241 241 240 240 239 240 240 238 238 240 240 239 239 239 240 242 244 246 250 253 256 259 262 265 269 273 277 280 284 288 290 293 296 299 302
275 274 274 273 273 272 271 270 268 265 263 261 260 258 257 256 254 253 252 251 250 249 249 248 248 247 246 245 245 245 245 245 244 244 244 243 243 242 241 242 245 247 247 245 244 243 241 242 242 240 239 239 238 238 239 240 240 238 238 240 240 239 238 238 239 241 243 246 249 252 255 258 261 264 268 272 275 278 282 286 289 291 294 298 301
276 276 275 274 273 273 272 270 269 266 264 261 260 259 258 256 255 254 253 252 251 250 249 249 248 248 247 246 246 245 245 245 244 244 244 243 244 243 241 239 241 244 247 246 245 245 242 240 241 239 237 237 237 237 239 240 239 239 239 239 240 239 237 237 239 241 242 246 249 252 254 257 259 263 267 270 274 277 280 284 287 289 292 296 300
277 276 276 275 274 272 271 270 269 267 265 262 260 258 258 257 256 254 253 252 251 251 250 249 248 248 247 247 246 245 245 245 245 245 244 243 243 243 240 239 239 241 244 247 247 247 244 241 239 237 237 238 238 239 240 240 239 239 239 238 238 238 237 237 240 241 243 246 248 251 253 256 258 262 266 269 272 275 278 282 285 287 291 294 298
277 277 277 276 274 272 270 269 268 266 265 263 260 259 257 257 256 255 254 253 252 251 250 250 249 248 247 247 246 246 245 245 244 244 244 243 242 242 242 240 239 239 242 246 248 248 247 245 240 238 238 239 239 240 241 240 239 239 239 237 236 236 236 238 240 241 243 246 248 250 252 254 258 261 265 268 271 274 277 281 284 286 289 292 296
277 277 277 276 274 272 270 269 267 266 265 263 261 260 258 256 256 255 255 253 253 252 251 250 249 248 248 247 247 246 245 245 244 243 244 244 243 242 243 241 238 238 239 242 245 246 248 248 242 239 239 239 238 239 240 239 238 238 237 236 235 235 237 240 241 242 244 245 247 249 251 254 257 260 264 267 270 273 276 280 282 284 287 291 294
277 276 277 276 274 273 271 270 268 266 264 263 261 260 258 257 256 255 255 254 253 253 251 251 250 249 248 247 247 246 245 245 244 243 243 243 243 243 243 241 238 236 238 240 243 245 247 248 244 240 239 237 237 239 239 237 237 236 236 236 235 236 238 240 241 243 243 245 247 249 251 254 256 259 262 265 268 272 275 278 281 283 286 289 292
275 274 275 275 275 273 272 271 269 267 265 263 261 260 258 257 256 255 254 254 254 253 252 251 250 250 248 247 247 246 245 245 244 243 242 242 243 242 241 241 239 237 237 238 239 241 244 246 244 241 238 235 237 240 239 237 236 235 235 235 235 237 238 239 241 243 243 244 246 248 251 253 255 258 261 264 267 270 273 276 280 282 284 288 291
274 273 274 274 274 273 272 271 270 268 266 264 262 260 259 257 256 255 254 253 253 253 253 252 250 250 249 248 247 246 245 245 244 243 243 242 242 242 241 241 241 239 237 237 237 237 241 244 243 240 236 235 237 239 239 238 236 235 235 235 236 237 238 239 241 242 243 244 246 248 251 253 254 257 260 263 266 269 272 275 278 280 283 287 290
274 274 274 274 273 273 272 271 270 269 267 265 263 261 259 258 256 255 254 253 253 252 252 252 251 250 249 249 248 246 245 244 244 243 243 242 241 241 240 240 241 240 238 237 237 237 239 242 242 240 237 236 237 238 237 237 236 236 236 236 237 238 238 239 240 242 242 243 245 248 251 252 254 256 259 262 265 268 271 274 276 278 282 286 289
275 275 274 274 273 273 272 271 270 269 268 266 264 262 260 259 257 256 255 254 253 252 252 252 251 251 250 249 248 247 246 245 244 243 243 242 241 240 240 239 239 239 239 237 236 237 238 240 240 239 238 236 236 235 235 235 235 235 236 237 238 239 239 239 240 241 241 243 246 248 250 252 253 255 258 261 264 267 271 273 275 278 282 285 288
276 275 275 274 273 272 271 270 270 269 268 266 265 263 262 260 258 256 255 254 253 253 252 251 251 251 250 249 248 248 247 245 244 243 242 242 241 240 239 238 238 239 239 238 236 236 237 238 238 237 235 234 234 235 235 236 236 235 235 236 238 239 239 240 241 241 241 243 246 248 250 252 253 255 257 260 263 267 270 272 275 277 281 285 287
276 275 275 274 273 271 270 270 269 268 268 266 265 264 262 261 259 257 256 255 254 253 252 251 250 250 250 250 249 248 247 246 245 243 243 242 241 240 239 238 238 238 238 237 236 235 235 237 237 236 234 233 235 236 236 237 237 236 235 236 237 239 240 240 240 240 241 243 247 249 250 252 254 255 257 259 263 266 269 271 274 277 281 285 287
276 275 274 273 272 271 270 269 269 268 267 266 265 264 263 261 260 259 257 256 254 253 253 252 251 250 249 249 249 247 247 246 245 244 243 242 241 240 238 237 237 237 236 236 236 234 234 235 236 235 234 234 236 236 236 235 236 236 236 237 237 238 239 240 240 240 242 244 247 248 249 250 252 254 256 260 262 265 268 271 273 277 281 284 285
276 275 274 273 272 271 270 269 269 268 267 266 265 263 262 261 261 260 258 257 256 254 253 253 252 251 249 249 248 247 246 246 245 245 244 243 242 240 239 237 236 235 236 236 236 234 233 233 234 234 233 233 235 235 234 235 236 236 235 236 237 238 239 239 239 240 241 244 246 247 248 249 251 253 256 260 262 264 267 270 274 277 280 282 285
276 275 274 273 272 271 270 269 269 268 266 265 264 263 262 261 260 260 259 258 257 256 255 253 252 251 250 249 248 247 247 246 245 245 244 243 242 241 239 238 236 235 235 235 235 234 233 232 232 232 231 232 234 233 233 235 236 235 233 234 236 238 238 238 239 240 240 242 244 247 248 249 250 253 256 258 261 263 267 271 274 276 278 281 286
277 276 275 274 273 272 271 270 269 268 266 265 264 263 262 261 260 260 260 259 258 257 256 255 253 252 251 250 249 247 246 245 245 244 244 243 242 242 241 239 236 235 235 234 234 233 232 231 231 230 231 232 233 232 232 233 234 234 234 235 236 237 237 238 239 240 240 241 243 246 248 249 250 253 256 258 260 263 267 270 272 274 277 282 287
278 277 276 275 274 273 272 271 269 268 267 266 265 264 262 261 261 260 260 259 258 257 256 255 254 252 251 250 248 247 246 245 244 244 244 243 242 241 241 239 237 235 234 233 233 232 232 232 231 231 230 230 229 230 231 232 233 234 234 236 237 237 237 238 239 240 240 240 242 245 247 248 249 252 257 259 260 263 267 268 268 272 278 283 288
279 278 277 276 275 274 272 271 270 269 268 267 266 264 263 262 261 261 260 259 258 257 256 255 254 253 251 249 248 247 246 245 244 243 243 243 242 240 240 239 237 235 233 233 233 233 232 231 230 230 228 228 228 230 231 231 231 232 233 235 237 237 237 238 239 240 239 238 241 244 246 247 249 252 257 259 260 262 265 266 267 272 278 284 289
280 279 278 277 275 274 273 272 271 270 269 268 267 265 264 262 261 261 261 260 258 257 255 254 253 252 251 249 247 246 245 244 243 242 242 241 241 240 239 238 237 235 234 233 232 232 232 230 229 228 228 228 229 230 230 230 230 231 232 235 236 236 236 238 239 240 238 238 241 244 245 247 249 252 256 259 259 260 262 265 269 275 279 284 289
280 279 279 277 276 276 274 273 272 271 270 269 267 266 264 263 262 262 261 260 259 257 255 253 252 251 250 248 246 245 244 243 242 241 240 240 240 239 238 237 236 235 234 232 231 230 231 230 229 228 228 229 229 230 229 229 230 231 233 234 235 235 236 237 238 238 238 239 240 243 246 248 250 253 257 258 257 259 262 266 271 275 280 285 289
281 281 280 279 278 277 276 275 273 272 271 269 268 266 264 263 263 262 261 260 258 257 255 253 251 249 247 246 245 244 242 242 241 240 240 239 238 238 238 237 236 235 233 232 230 230 230 230 229 229 229 229 228 228 228 228 229 231 232 233 233 234 234 236 237 238 238 239 239 241 246 248 249 253 257 257 256 259 263 268 273 277 281 286 289
283 283 282 281 280 279 278 277 276 274 273 271 269 267 265 264 263 262 261 260 258 256 254 252 250 248 245 244 243 242 241 239 238 238 238 238 237 237 237 236 236 234 233 231 229 229 228 229 229 229 228 227 226 227 227 227 229 230 231 231 232 232 233 236 238 239 239 239 239 240 245 248 248 252 256 256 257 260 265 269 274 278 282 285 287
285 285 284 283 282 281 280 279 278 277 275 273 271 269 267 265 263 262 260 259 257 255 253 251 248 246 244 242 240 240 239 238 236 235 236 237 237 236 236 236 235 234 231 228 227 227 227 227 227 226 226 226 226 227 227 228 229 231 232 233 232 233 234 236 238 239 240 240 239 240 244 248 248 250 254 256 258 262 266 269 274 279 283 285 285
287 286 285 284 284 283 282 282 281 279 277 275 273 270 268 265 263 261 259 258 256 254 252 250 247 244 242 240 239 238 237 236 234 233 233 235 236 236 235 235 234 233 230 227 226 225 225 225 225 225 225 225 226 226 227 229 231 232 233 233 233 234 236 237 237 238 241 242 239 239 244 248 248 249 252 254 258 262 266 269 274 280 284 285 285